Regional Weather Roundup
Issued by NWS Tiyan, Guam

Home | Current Version | Previous Version | Text Only | Print | Product List | Glossary On
Versions: 1 2 3 4 5 6 7 8 9 10 11 12 13 14 15 16 17 18 19 20 21 22 23 24 25 26 27
000
ASGM40 PGUM 180212
RWRGUM
WEATHER ROUNDUP FOR THE MARIANAS
NATIONAL WEATHER SERVICE TIYAN GU
1200 PM CHST WED JAN 18 2017

GUZ001>004-180300-
MARIANA ISLANDS-

CITY           SKY/WX    TMP DP  RH WIND       PRES   REMARKS
GUAM AIRPORT   CLOUDY    81  79  94 NE17      30.00F FOG
ANDERSEN AFB   PTSUNNY   77  75  94 NE18      30.01F
ROTA AIRPORT   LGT RAIN  77  73  88 NE13      30.01F
TINIAN AP      PTSUNNY   81  73  78 NE23      30.01F
SAIPAN AP      PTSUNNY   82  73  74 NE26G35   30.01F

$$





USA.gov is the U.S. government's official web portal to all federal, state and local government web resources and services.